Simultaneous Nadir Overpasses (SNOs) Predictions

Prediction of SNOs between NOAA-19 and NPP Satellite Orbit:

Table of predicted SNOs for the next 14.0 days since TLE Epoch: 5/5/2014
Index Date (NOAA-19) Time (NOAA-19) Lat,Lon (NOAA-19) SZA (NOAA-19 ) Date (NPP) Time (NPP) Lat,Lon (NPP) SZA (NPP ) Distance(km) Time Diff (sec)
1 05/08/2014 13:14:50 -81.01, 107.23 112.42 05/08/2014 13:15:58 -81.01, 107.17 112.45 1.00 68
2 05/08/2014 14:05:55 81.01, -85.46 67.57 05/08/2014 14:06:43 81.01, -85.38 67.53 1.47 48
3 05/08/2014 14:56:52 -80.99, 82.34 112.53 05/08/2014 14:57:27 -81.00, 82.17 112.52 2.94 35
4 05/08/2014 15:47:57 80.99,-110.35 67.46 05/08/2014 15:48:12 80.99,-110.38 67.45 0.59 15
5 05/08/2014 16:38:55 -80.99, 57.08 112.58 05/08/2014 16:38:56 -80.98, 57.17 112.60 1.67 1
6 05/08/2014 17:29:59 80.97,-135.23 67.35 05/08/2014 17:29:41 80.98,-135.38 67.38 2.62 18
7 05/08/2014 18:20:58 -80.98, 31.82 112.64 05/08/2014 18:20:26 -80.98, 31.80 112.62 0.36 32
8 05/08/2014 19:12:03 80.98,-160.86 67.35 05/08/2014 19:11:11 80.98,-160.75 67.36 1.91 52




NCC Satellite Simultaneous Nadir Overpasses (SNOs) Prediction Service
